Hourly Data Report for August 26, 2021

ALGONQUIN PARK EAST GATE
ONTARIO
Current Station Operator: ECCC - MSC

45°32'00.000" N
78°16'00.000" W
397.00 m
6080192
71581
TNK

Download Data

Hourly Data (August 2021)
Hourly Data Report for August 26, 2021
TIME
LST
Temp Definition
°C
Dew Point Definition
°C
Rel Hum Definition
%
Precip. Amount Definition
mm

Wind Dir Definition
10's deg

Wind Spd Definition
km/h
Visibility Definition
km
Stn Press Definition
kPa
Hmdx Definition


Wind Chill Definition


Weather Definition


00:00 17.7 17.0 96 0.0   0   97.12     LegendNANA
01:00 17.7 17.1 97 0.0 0 1   97.12     LegendNANA
02:00 17.8 17.4 98 0.0   0   97.14     LegendNANA
03:00 17.9 17.6 98 0.0 0 1   97.15     LegendNANA
04:00 18.0 17.7 98 0.0 25 1   97.17     LegendNANA
05:00 17.3 16.9 98 0.0 9 1   97.19     LegendNANA
06:00 16.6 16.3 98 0.0   0   97.27     LegendNANA
07:00 18.6 18.3 98 0.0 0 1   97.33     LegendNANA
08:00 21.4 20.2 92 0.0   0   97.32 29   LegendNANA
09:00 24.8 19.8 74 0.0 26 5   97.30 32   LegendNANA
10:00 26.1 17.9 61 0.0 28 7   97.32 32   LegendNANA
11:00 27.2 18.0 57 0.0 26 5   97.31 33   LegendNANA
12:00 27.4 17.6 55 0.0 31 6   97.30 33   LegendNANA
13:00 28.3 18.0 53 0.0 26 7   97.28 34   LegendNANA
14:00 29.0 17.9 51 0.0 27 5   97.25 35   LegendNANA
15:00 29.2 17.6 50 0.0 31 5   97.21 35   LegendNANA
16:00 27.7 17.8 55 0.0 29 5   97.25 34   LegendNANA
17:00 26.8 17.0 55 0.0 34 3   97.24 32   LegendNANA
18:00 25.2 16.6 59 0.0 34 2   97.25 30   LegendNANA
19:00 21.8 16.1 70 0.0 34 1   97.29 26   LegendNANA
20:00 19.1 15.9 82 0.0   0   97.35     LegendNANA
21:00 18.2 16.3 89 0.0 0 1   97.41     LegendNANA
22:00 18.1 13.3 74 0.0 4 1   97.41     LegendNANA
23:00 16.2 12.0 76 0.0   0   97.46     LegendNANA

Notes on Data Quality.

Legend

  • E = Estimated
  • M = Missing
  • NA = Not Available*
  • [empty] = Indicates an unobserved value
Date modified: